Wetbulb
32.39 31.37 30.92 30.64 30.42 30.67 30.94 31.66 33.57 33.67 33.78 33.86 34.26 34.29 34.66 34.63 35.46 35.90 35.74 35.76 36.62 36.91
31.63 31.18 30.54 30.72 30.73 30.37 30.92 32.33 32.72 32.64 32.43 32.85 33.14 33.38 33.51 33.44 33.79 34.62 35.04 35.58 35.94 36.27
31.25 31.47 31.19 30.63 29.76 29.68 31.35 31.64 31.29 31.29 31.65 32.02 32.43 32.95 33.18 33.03 33.52 33.23 33.78 34.70 35.03 35.41
30.88 31.10 30.59 29.59 29.09 30.28 31.34 31.01 30.65 30.74 30.87 30.97 31.32 32.03 32.12 32.42 32.72 32.48 33.01 33.83 33.93 34.79
30.52 29.73 28.81 27.83 27.58 30.79 30.59 30.87 30.34 30.47 30.67 31.14 31.59 31.81 31.54 31.68 32.51 32.34 32.15 32.78 33.35 33.49
28.14 26.14 21.21 21.72 24.18 29.94 30.53 30.18 30.63 31.04 30.79 30.76 30.97 31.20 31.57 31.77 31.86 32.21 32.64 33.09 33.01 32.31
23.91 23.99 20.73 20.22 25.61 24.53 27.93 30.50 30.94 30.94 30.60 30.80 31.39 31.78 31.94 32.09 32.19 32.34 32.82 33.03 33.33 33.34
18.26 18.28 16.91 15.87 26.69 28.10 23.40 31.20 31.24 29.91 29.82 30.75 31.82 32.43 33.38 33.21 32.62 33.87 32.59 32.22 32.40 33.37
13.24 13.86 13.14 13.06 22.22 30.60 29.57 30.38 30.52 29.14 28.66 28.90 30.86 34.69 34.23 32.96 31.32 32.43 32.10 31.93 32.95 32.77
10.46 10.52 10.43 10.98 14.66 23.35 26.28 28.46 29.82 28.91 28.03 28.03 29.32 34.53 33.61 32.80 28.99 29.61 30.40 31.27 31.92 32.41
9.96 9.97 10.22 9.91 11.91 15.25 18.50 20.22 22.68 22.13 22.32 27.28 28.63 33.90 33.63 32.01 26.50 26.12 29.03 30.87 31.54 31.39
10.85 9.98 9.69 11.37 11.18 12.97 15.01 17.91 16.45 19.21 17.39 21.04 25.21 32.10 32.85 28.85 26.25 26.89 26.68 29.28 31.06 31.82
11.02 10.71 12.14 11.45 12.93 12.84 13.55 19.45 22.18 21.85 15.89 17.90 19.19 27.98 31.76 28.98 26.23 23.37 26.01 26.40 28.31 31.27
12.58 14.88 15.01 15.98 16.53 18.25 17.36 17.76 14.18 18.43 17.50 16.19 18.24 19.12 29.23 30.32 25.06 22.61 22.59 23.26 24.40 28.88
MSLP
1016.24 1016.23 1016.12 1015.89 1015.69 1015.32 1014.99 1014.67 1014.44 1014.17 1013.89 1013.62 1013.40 1013.16 1012.90 1012.52 1012.08 1011.77 1011.43 1011.09 1010.81 1010.45
1015.93 1015.89 1015.75 1015.58 1015.36 1015.05 1014.83 1014.52 1014.20 1014.05 1013.69 1013.36 1013.04 1012.77 1012.48 1012.05 1011.63 1011.36 1010.94 1010.47 1010.17 1009.86
1015.84 1015.68 1015.54 1015.40 1015.21 1015.01 1014.76 1014.42 1014.12 1013.81 1013.45 1013.02 1012.65 1012.27 1011.87 1011.43 1011.03 1010.69 1010.17 1009.75 1009.33 1008.99
1015.64 1015.56 1015.52 1015.34 1015.16 1015.01 1014.67 1014.27 1013.89 1013.49 1013.01 1012.52 1012.02 1011.60 1011.16 1010.67 1010.22 1009.82 1009.35 1008.98 1008.61 1008.23
1015.59 1015.57 1015.52 1015.39 1015.22 1014.92 1014.42 1014.00 1013.60 1013.11 1012.55 1011.96 1011.45 1011.01 1010.57 1009.98 1009.46 1008.99 1008.45 1008.02 1007.72 1007.40
1015.58 1015.67 1015.64 1015.38 1015.24 1014.66 1014.22 1013.75 1013.22 1012.65 1012.08 1011.54 1010.99 1010.38 1009.84 1009.35 1008.69 1008.11 1007.54 1007.11 1006.84 1006.67
1015.80 1015.78 1015.48 1015.37 1015.18 1014.44 1013.93 1013.49 1012.98 1012.48 1011.84 1011.20 1010.48 1009.80 1009.13 1008.46 1007.73 1007.00 1006.54 1006.31 1006.15 1006.05
1015.86 1015.58 1015.32 1015.18 1014.69 1014.15 1013.69 1013.28 1012.86 1012.42 1011.74 1010.95 1010.08 1009.27 1008.45 1007.79 1006.92 1006.11 1005.89 1005.85 1005.79 1005.51
1015.91 1015.76 1015.40 1014.91 1014.57 1014.04 1013.61 1013.05 1012.70 1012.36 1011.76 1010.94 1010.01 1008.99 1008.23 1007.59 1006.96 1006.26 1005.94 1005.57 1005.29 1004.97
1015.77 1015.85 1015.64 1014.90 1014.71 1014.28 1013.70 1012.99 1012.73 1012.38 1011.79 1011.03 1010.15 1009.02 1008.27 1007.79 1007.33 1006.63 1006.19 1005.75 1005.17 1004.50
1015.38 1015.54 1015.32 1015.11 1014.85 1014.59 1013.80 1013.24 1012.88 1012.59 1012.04 1011.29 1010.54 1009.36 1008.53 1008.05 1007.56 1007.02 1006.45 1005.70 1005.13 1004.43
1014.99 1015.16 1015.14 1014.64 1014.65 1014.56 1014.00 1013.42 1013.04 1012.46 1012.21 1011.52 1010.70 1009.76 1008.97 1008.42 1007.88 1007.38 1006.89 1006.17 1005.43 1004.62
1014.37 1014.67 1014.56 1013.92 1013.85 1013.67 1013.45 1013.26 1012.83 1012.50 1012.16 1011.62 1011.19 1010.28 1009.41 1008.84 1008.47 1008.05 1007.41 1006.68 1005.96 1005.19
1013.51 1013.86 1013.74 1013.64 1012.96 1013.05 1013.13 1012.80 1012.57 1012.46 1012.01 1011.51 1011.11 1010.62 1009.77 1009.20 1009.03 1008.76 1008.34 1007.66 1006.99 1006.19
Wind_Speed
4 3 3 4 4 5 5 7 9 8 9 10 10 10 10 9 10 11 10 14 12 10
3 5 5 6 4 4 6 7 9 10 11 11 11 11 11 9 11 11 11 12 12 12
4 5 5 5 5 6 8 9 9 10 10 11 11 11 11 10 11 12 11 10 13 14
4 4 4 4 5 7 9 9 9 10 11 11 11 11 11 12 13 14 14 14 14 15
3 4 5 5 6 8 8 8 9 10 10 10 10 11 12 13 12 13 14 15 14 14
4 4 4 5 6 8 7 8 9 9 10 11 11 11 11 12 13 14 14 14 13 15
2 3 3 4 6 6 6 8 9 8 10 10 11 11 12 12 13 15 13 11 11 10
4 4 3 3 5 6 5 7 7 8 10 10 9 8 10 9 12 9 6 7 8 9
2 4 3 3 5 5 6 6 5 7 10 10 8 19 18 14 9 7 5 7 7 8
2 3 3 3 4 5 4 4 6 7 9 10 11 23 20 16 7 7 7 7 7 8
3 4 4 3 3 5 3 3 4 4 6 8 9 22 20 16 7 6 7 7 8 7
5 3 4 1 3 4 2 3 3 3 5 5 8 20 20 12 7 7 8 9 10 8
6 5 5 4 4 4 2 2 3 4 3 5 6 14 18 13 6 7 7 9 10 18
6 6 6 5 2 2 2 1 2 3 4 4 4 7 15 16 6 5 6 6 8 8
Wind_Direction
279 274 281 284 282 291 298 307 305 299 297 297 292 288 287 282 276 268 264 263 259 258
307 313 310 302 299 306 311 309 315 312 306 300 292 286 282 277 275 274 272 264 262 262
301 316 311 316 317 319 312 311 306 301 296 296 290 287 281 276 270 267 264 265 261 259
316 318 324 325 320 318 314 310 302 297 293 288 287 283 278 272 270 268 267 263 261 266
316 342 337 328 317 307 305 302 294 292 290 289 287 286 283 282 276 269 265 263 259 256
343 344 319 318 311 297 304 300 298 298 301 302 297 289 281 276 273 268 263 263 258 259
305 286 302 302 301 289 302 306 310 316 312 307 300 294 286 280 275 267 259 259 254 252
277 290 316 312 303 292 298 331 318 335 323 315 313 306 323 322 306 295 258 263 258 248
286 305 319 330 309 302 350 336 327 344 327 328 321 344 348 351 339 311 276 271 262 248
225 288 293 328 331 310 302 322 332 350 333 332 338 360 359 355 341 347 346 325 301 281
193 263 288 7 340 308 293 319 314 309 324 340 344 2 4 1 336 344 346 351 337 313
185 224 274 57 322 281 300 309 308 291 316 339 347 3 11 9 346 360 359 3 0 357
177 207 243 207 208 224 253 278 309 330 332 328 334 354 16 25 4 3 8 7 6 19
187 212 223 243 193 217 280 353 1 344 319 326 336 332 21 26 20 12 355 7 0 7